| time (UTC) | temp F | wind direction | speed knots | gust knots | rain 1hr in | rain 24hr in | rain mn in | humidity % | barometer mb |
| 20260505082722 | 89 | 0.0 | 0.0 | 0.00 | 0.00 | 0.00 | 75 | 1016.7 | |
| 20260505082223 | 90 | 0.0 | 0.0 | 0.00 | 0.00 | 0.00 | 75 | 1016.7 | |
| 20260505081723 | 89 | 0.0 | 0.0 | 0.00 | 0.00 | 0.00 | 76 | 1016.9 | |
| 20260505081222 | 90 | 0.0 | 0.0 | 0.00 | 0.00 | 0.00 | 75 | 1016.9 | |
| 20260505080726 | 89 | 0.0 | 0.0 | 0.00 | 0.00 | 0.00 | 75 | 1016.9 | |
| 20260505080223 | 90 | 0.0 | 0.0 | 0.00 | 0.00 | 0.00 | 75 | 1016.9 | |
| 20260505075723 | 90 | 0.0 | 0.0 | 0.00 | 0.00 | 0.00 | 75 | 1017.1 | |
| 20260505075222 | 89 | 0.0 | 0.0 | 0.00 | 0.00 | 0.00 | 74 | 1017.2 | |
| 20260505074723 | 90 | 0.0 | 0.0 | 0.00 | 0.00 | 0.00 | 76 | 1017.3 | |
| 20260505074223 | 90 | 0.0 | 0.0 | 0.00 | 0.00 | 0.00 | 74 | 1017.4 | |
| 20260505073722 | 89 | 0.0 | 0.0 | 0.00 | 0.00 | 0.00 | 76 | 1017.5 | |
| 20260505073223 | 91 | 0.0 | 0.0 | 0.00 | 0.00 | 0.00 | 74 | 1017.5 | |
| 20260505072723 | 89 | 0.0 | 0.0 | 0.00 | 0.00 | 0.00 | 76 | 1017.6 | |
| 20260505072223 | 89 | 0.0 | 0.0 | 0.00 | 0.00 | 0.00 | 75 | 1017.6 | |
| 20260505071722 | 90 | 0.0 | 0.0 | 0.00 | 0.00 | 0.00 | 75 | 1017.7 | |
| 20260505071223 | 90 | 0.0 | 0.0 | 0.00 | 0.00 | 0.00 | 76 | 1017.7 | |
| 20260505070723 | 91 | 0.0 | 0.0 | 0.00 | 0.00 | 0.00 | 74 | 1017.9 | |
| 20260505070222 | 90 | 0.0 | 0.0 | 0.00 | 0.00 | 0.00 | 74 | 1017.9 | |
| 20260505065723 | 90 | 0.0 | 0.0 | 0.00 | 0.00 | 0.00 | 74 | 1018.0 | |
| 20260505065223 | 90 | 0.0 | 0.0 | 0.00 | 0.00 | 0.00 | 74 | 1018.1 | |
| 20260505064723 | 90 | 0.0 | 0.0 | 0.00 | 0.00 | 0.00 | 72 | 1018.1 | |
| 20260505064222 | 90 | 0.0 | 0.0 | 0.00 | 0.00 | 0.00 | 74 | 1018.2 | |
| 20260505063723 | 89 | 0.0 | 0.0 | 0.00 | 0.00 | 0.00 | 74 | 1018.4 | |
| 20260505063223 | 90 | 0.0 | 0.0 | 0.00 | 0.00 | 0.00 | 74 | 1018.4 | |
| 20260505062723 | 91 | 0.0 | 0.0 | 0.00 | 0.00 | 0.00 | 74 | 1018.5 | |
| 20260505062222 | 91 | 0.0 | 0.0 | 0.00 | 0.00 | 0.00 | 74 | 1018.6 | |
| 20260505061723 | 90 | 0.0 | 0.0 | 0.00 | 0.00 | 0.00 | 75 | 1018.8 | |
| 20260505061226 | 90 | 0.0 | 0.0 | 0.00 | 0.00 | 0.00 | 75 | 1018.9 | |
| 20260505060722 | 91 | 0.0 | 0.0 | 0.00 | 0.00 | 0.00 | 75 | 1018.9 | |
| 20260505060223 | 91 | 0.0 | 0.0 | 0.00 | 0.00 | 0.00 | 76 | 1018.9 | |
| 20260505055723 | 90 | 0.0 | 0.0 | 0.00 | 0.00 | 0.00 | 75 | 1019.0 | |
| 20260505055223 | 90 | 0.0 | 0.0 | 0.00 | 0.00 | 0.00 | 77 | 1019.1 | |
| 20260505054722 | 90 | 0.0 | 0.0 | 0.00 | 0.00 | 0.00 | 76 | 1019.2 | |
| 20260505054223 | 88 | 0.0 | 0.0 | 0.00 | 0.00 | 0.00 | 77 | 1019.4 | |
| 20260505053722 | 91 | 0.0 | 0.0 | 0.00 | 0.00 | 0.00 | 77 | 1019.4 | |
| 20260505053223 | 91 | 0.0 | 0.0 | 0.00 | 0.00 | 0.00 | 77 | 1019.5 | |
| 20260505052722 | 90 | 0.0 | 0.0 | 0.00 | 0.00 | 0.00 | 77 | 1019.6 | |
| 20260505052223 | 90 | 0.0 | 0.0 | 0.00 | 0.00 | 0.00 | 77 | 1019.7 | |
| 20260505051723 | 89 | 0.0 | 0.0 | 0.00 | 0.00 | 0.00 | 77 | 1019.7 | |
| 20260505051222 | 90 | 0.0 | 0.0 | 0.00 | 0.00 | 0.00 | 78 | 1019.9 | |
| 20260505050723 | 90 | 0.0 | 0.0 | 0.00 | 0.00 | 0.00 | 79 | 1019.9 | |
| 20260505050222 | 90 | 0.0 | 0.0 | 0.00 | 0.00 | 0.00 | 77 | 1020.0 | |
| 20260505041722 | 87 | 0.0 | 0.0 | 0.00 | 0.00 | 0.00 | 77 | 1020.9 | |
| 20260505041223 | 87 | 0.0 | 0.0 | 0.00 | 0.00 | 0.00 | 81 | 1020.9 | |
| 20260505040722 | 87 | 0.0 | 0.0 | 0.00 | 0.00 | 0.00 | 81 | 1020.9 | |
| 20260505040223 | 86 | 0.0 | 0.0 | 0.00 | 0.00 | 0.00 | 80 | 1021.0 | |
| 20260505035722 | 87 | 0.0 | 0.0 | 0.00 | 0.00 | 0.00 | 80 | 1021.0 | |
| 20260505035223 | 86 | 0.0 | 0.0 | 0.00 | 0.00 | 0.00 | 80 | 1021.2 | |
| 20260505034723 | 86 | 0.0 | 0.0 | 0.00 | 0.00 | 0.00 | 81 | 1021.3 | |
| 20260505034222 | 85 | 0.0 | 0.0 | 0.00 | 0.00 | 0.00 | 83 | 1021.3 | |
| 20260505033723 | 85 | 0.0 | 0.0 | 0.00 | 0.00 | 0.00 | 83 | 1021.2 | |
| 20260505033222 | 85 | 0.0 | 0.0 | 0.00 | 0.00 | 0.00 | 83 | 1021.3 | |
| 20260505032723 | 85 | 0.0 | 0.0 | 0.00 | 0.00 | 0.00 | 83 | 1021.3 | |
| 20260505032222 | 84 | 0.0 | 0.0 | 0.00 | 0.00 | 0.00 | 84 | 1021.4 | |
| 20260505031723 | 84 | 0.0 | 0.0 | 0.00 | 0.00 | 0.00 | 83 | 1021.4 | |
| 20260505031223 | 85 | 0.0 | 0.0 | 0.00 | 0.00 | 0.00 | 84 | 1021.3 | |
| 20260505030722 | 85 | 0.0 | 0.0 | 0.00 | 0.00 | 0.00 | 84 | 1021.4 | |
| 20260505030223 | 84 | 0.0 | 0.0 | 0.00 | 0.00 | 0.00 | 84 | 1021.4 | |
| 20260505025722 | 84 | 0.0 | 0.0 | 0.00 | 0.00 | 0.00 | 84 | 1021.4 | |
| 20260505025223 | 84 | 0.0 | 0.0 | 0.00 | 0.00 | 0.00 | 85 | 1021.5 | |
| 20260505024722 | 84 | 0.0 | 0.0 | 0.00 | 0.00 | 0.00 | 84 | 1021.4 | |
| 20260505024223 | 84 | 0.0 | 0.0 | 0.00 | 0.00 | 0.00 | 85 | 1021.4 | |
| 20260505023723 | 84 | 0.0 | 0.0 | 0.00 | 0.00 | 0.00 | 85 | 1021.3 | |
| 20260505023222 | 84 | 0.0 | 0.0 | 0.00 | 0.00 | 0.00 | 85 | 1021.2 | |
| 20260505022723 | 83 | 0.0 | 0.0 | 0.00 | 0.00 | 0.00 | 86 | 1021.2 | |
| 20260505022222 | 83 | 0.0 | 0.0 | 0.00 | 0.00 | 0.00 | 87 | 1021.3 | |
| 20260505021723 | 83 | 0.0 | 0.0 | 0.00 | 0.00 | 0.00 | 87 | 1021.3 | |
| 20260505021222 | 83 | 0.0 | 0.0 | 0.00 | 0.00 | 0.00 | 88 | 1021.3 | |
| 20260505020723 | 83 | 0.0 | 0.0 | 0.00 | 0.00 | 0.00 | 88 | 1021.2 | |
| 20260505020223 | 82 | 0.0 | 0.0 | 0.00 | 0.00 | 0.00 | 89 | 1021.1 | |
| 20260505015722 | 82 | 0.0 | 0.0 | 0.00 | 0.00 | 0.00 | 89 | 1021.1 | |
| 20260505015223 | 82 | 0.0 | 0.0 | 0.00 | 0.00 | 0.00 | 89 | 1021.1 | |
| 20260505014722 | 82 | 0.0 | 0.0 | 0.00 | 0.00 | 0.00 | 89 | 1021.1 | |
| 20260505014223 | 81 | 0.0 | 0.0 | 0.00 | 0.00 | 0.00 | 89 | 1021.2 | |
| 20260505013722 | 81 | 0.0 | 0.0 | 0.00 | 0.00 | 0.00 | 89 | 1021.2 | |
| 20260505013223 | 81 | 0.0 | 0.0 | 0.00 | 0.00 | 0.00 | 89 | 1021.1 | |
| 20260505012723 | 81 | 0.0 | 0.0 | 0.00 | 0.00 | 0.00 | 90 | 1021.1 | |
| 20260505012222 | 81 | 0.0 | 0.0 | 0.00 | 0.00 | 0.00 | 89 | 1021.1 | |
| 20260505011723 | 81 | 0.0 | 0.0 | 0.00 | 0.00 | 0.00 | 89 | 1021.0 | |
| 20260505011222 | 80 | 0.0 | 0.0 | 0.00 | 0.00 | 0.00 | 90 | 1020.9 | |
| 20260505010723 | 80 | 0.0 | 0.0 | 0.00 | 0.00 | 0.00 | 89 | 1020.8 | |
| 20260505010222 | 80 | 0.0 | 0.0 | 0.00 | 0.00 | 0.00 | 89 | 1020.7 | |
| 20260505005723 | 80 | 0.0 | 0.0 | 0.00 | 0.00 | 0.00 | 89 | 1020.8 | |
| 20260505005223 | 80 | 0.0 | 0.0 | 0.00 | 0.00 | 0.00 | 89 | 1020.8 | |
| 20260505004722 | 80 | 0.0 | 0.0 | 0.00 | 0.00 | 0.00 | 89 | 1020.8 | |
| 20260505004223 | 80 | 0.0 | 0.0 | 0.00 | 0.00 | 0.00 | 89 | 1020.7 | |
| 20260505003722 | 80 | 0.0 | 0.0 | 0.00 | 0.00 | 0.00 | 89 | 1020.7 | |
| 20260505003223 | 80 | 0.0 | 0.0 | 0.00 | 0.00 | 0.00 | 89 | 1020.6 | |
| 20260505002722 | 79 | 0.0 | 0.0 | 0.00 | 0.00 | 0.00 | 90 | 1020.5 | |
| 20260505002223 | 79 | 0.0 | 0.0 | 0.00 | 0.00 | 0.00 | 90 | 1020.4 | |
| 20260505001722 | 79 | 0.0 | 0.0 | 0.00 | 0.00 | 0.00 | 90 | 1020.3 | |
| 20260505001222 | 80 | 0.0 | 0.0 | 0.00 | 0.00 | 0.00 | 89 | 1020.2 | |
| 20260505000723 | 80 | 0.0 | 0.0 | 0.00 | 0.00 | 0.00 | 89 | 1020.1 | |
| 20260505000223 | 80 | 0.0 | 0.0 | 0.00 | 0.00 | 0.00 | 89 | 1020.1 | |
| 20260504235722 | 79 | 0.0 | 0.0 | 0.00 | 0.00 | 0.00 | 89 | 1020.0 | |
| 20260504235223 | 79 | 0.0 | 0.0 | 0.00 | 0.00 | 0.00 | 90 | 1019.9 | |
| 20260504234722 | 79 | 0.0 | 0.0 | 0.00 | 0.00 | 0.00 | 90 | 1019.8 | |
| 20260504234223 | 79 | 0.0 | 0.0 | 0.00 | 0.00 | 0.00 | 90 | 1019.8 | |
| 20260504233722 | 79 | 0.0 | 0.0 | 0.00 | 0.00 | 0.00 | 90 | 1019.7 | |
| 20260504233223 | 79 | 0.0 | 0.0 | 0.00 | 0.00 | 0.00 | 90 | 1019.7 | |
| 20260504232723 | 79 | 0.0 | 0.0 | 0.00 | 0.00 | 0.00 | 90 | 1019.6 | |
| 20260504232223 | 79 | 0.0 | 0.0 | 0.00 | 0.00 | 0.00 | 90 | 1019.7 | |
| 20260504231722 | 80 | 0.0 | 0.0 | 0.00 | 0.00 | 0.00 | 89 | 1019.7 | |
| 20260504231223 | 80 | 0.0 | 0.0 | 0.00 | 0.00 | 0.00 | 90 | 1019.7 | |
| 20260504230723 | 80 | 0.0 | 0.0 | 0.00 | 0.00 | 0.00 | 89 | 1019.7 | |
| 20260504230222 | 80 | 0.0 | 0.0 | 0.00 | 0.00 | 0.00 | 89 | 1019.6 | |
| 20260504225723 | 80 | 0.0 | 0.0 | 0.00 | 0.00 | 0.00 | 89 | 1019.6 | |
| 20260504225222 | 80 | 0.0 | 0.0 | 0.00 | 0.00 | 0.00 | 89 | 1019.6 | |
| 20260504224723 | 80 | 0.0 | 0.0 | 0.00 | 0.00 | 0.00 | 89 | 1019.5 | |
| 20260504224222 | 80 | 0.0 | 0.0 | 0.00 | 0.00 | 0.00 | 89 | 1019.5 | |
| 20260504223723 | 80 | 0.0 | 0.0 | 0.00 | 0.00 | 0.00 | 89 | 1019.5 | |
| 20260504223223 | 80 | 0.0 | 0.0 | 0.00 | 0.00 | 0.00 | 89 | 1019.5 | |
| 20260504222722 | 80 | 0.0 | 0.0 | 0.00 | 0.00 | 0.00 | 89 | 1019.4 | |
| 20260504222223 | 80 | 0.0 | 0.0 | 0.00 | 0.00 | 0.00 | 89 | 1019.4 | |
| 20260504221723 | 80 | 0.0 | 0.0 | 0.00 | 0.00 | 0.00 | 89 | 1019.3 | |
| 20260504221223 | 80 | 0.0 | 0.0 | 0.00 | 0.00 | 0.00 | 89 | 1019.2 | |
| 20260504220722 | 80 | 0.0 | 0.0 | 0.00 | 0.00 | 0.00 | 89 | 1019.1 | |
| 20260504220223 | 80 | 0.0 | 0.0 | 0.00 | 0.00 | 0.00 | 89 | 1019.1 | |
| 20260504215723 | 80 | 0.0 | 0.0 | 0.00 | 0.00 | 0.00 | 89 | 1019.1 | |
| 20260504215222 | 80 | 0.0 | 0.0 | 0.00 | 0.00 | 0.00 | 89 | 1019.1 | |
| 20260504214723 | 80 | 0.0 | 0.0 | 0.00 | 0.00 | 0.00 | 89 | 1019.2 | |
| 20260504214223 | 80 | 0.0 | 0.0 | 0.00 | 0.00 | 0.00 | 89 | 1019.2 | |
| 20260504213723 | 80 | 0.0 | 0.0 | 0.00 | 0.00 | 0.00 | 89 | 1019.2 | |
| 20260504213222 | 80 | 0.0 | 0.0 | 0.00 | 0.00 | 0.00 | 89 | 1019.3 | |
| 20260504212723 | 80 | 0.0 | 0.0 | 0.00 | 0.00 | 0.00 | 89 | 1019.3 | |
| 20260504212223 | 80 | 0.0 | 0.0 | 0.00 | 0.00 | 0.00 | 89 | 1019.3 | |
| 20260504211722 | 80 | 0.0 | 0.0 | 0.00 | 0.00 | 0.00 | 89 | 1019.2 | |
| 20260504211223 | 80 | 0.0 | 0.0 | 0.00 | 0.00 | 0.00 | 89 | 1019.3 | |
| 20260504210722 | 80 | 0.0 | 0.0 | 0.00 | 0.00 | 0.00 | 89 | 1019.4 | |
| 20260504210223 | 80 | 0.0 | 0.0 | 0.00 | 0.00 | 0.00 | 89 | 1019.4 | |
| 20260504205722 | 80 | 0.0 | 0.0 | 0.00 | 0.00 | 0.00 | 89 | 1019.5 | |
| 20260504205223 | 80 | 0.0 | 0.0 | 0.00 | 0.00 | 0.00 | 89 | 1019.5 | |
| 20260504204723 | 80 | 0.0 | 0.0 | 0.00 | 0.00 | 0.00 | 89 | 1019.5 | |
| 20260504204222 | 80 | 0.0 | 0.0 | 0.00 | 0.00 | 0.00 | 89 | 1019.5 | |
| 20260504203723 | 80 | 0.0 | 0.0 | 0.00 | 0.00 | 0.00 | 89 | 1019.6 | |
| 20260504203222 | 80 | 0.0 | 0.0 | 0.00 | 0.00 | 0.00 | 89 | 1019.6 | |
| 20260504202723 | 81 | 0.0 | 0.0 | 0.00 | 0.00 | 0.00 | 88 | 1019.6 | |
| 20260504202223 | 81 | 0.0 | 0.0 | 0.00 | 0.00 | 0.00 | 88 | 1019.6 | |
| 20260504201723 | 80 | 0.0 | 0.0 | 0.00 | 0.00 | 0.00 | 89 | 1019.7 | |
| 20260504201223 | 81 | 0.0 | 0.0 | 0.00 | 0.00 | 0.00 | 88 | 1019.6 | |
| 20260504200722 | 81 | 0.0 | 0.0 | 0.00 | 0.00 | 0.00 | 89 | 1019.7 | |
| 20260504200223 | 80 | 0.0 | 0.0 | 0.00 | 0.00 | 0.00 | 89 | 1019.7 | |
| 20260504195722 | 81 | 0.0 | 0.0 | 0.00 | 0.00 | 0.00 | 88 | 1019.7 | |
| 20260504195223 | 81 | 0.0 | 0.0 | 0.00 | 0.00 | 0.00 | 88 | 1019.6 | |
| 20260504194722 | 80 | 0.0 | 0.0 | 0.00 | 0.00 | 0.00 | 89 | 1019.6 | |
| 20260504194223 | 81 | 0.0 | 0.0 | 0.00 | 0.00 | 0.00 | 88 | 1019.6 | |
| 20260504193722 | 81 | 0.0 | 0.0 | 0.00 | 0.00 | 0.00 | 88 | 1019.7 | |
| 20260504193223 | 81 | 0.0 | 0.0 | 0.00 | 0.00 | 0.00 | 88 | 1019.7 | |
| 20260504192722 | 81 | 0.0 | 0.0 | 0.00 | 0.00 | 0.00 | 88 | 1019.7 | |
| 20260504192223 | 81 | 0.0 | 0.0 | 0.00 | 0.00 | 0.00 | 88 | 1019.7 | |
| 20260504191723 | 81 | 0.0 | 0.0 | 0.00 | 0.00 | 0.00 | 88 | 1019.7 | |
| 20260504191222 | 81 | 0.0 | 0.0 | 0.00 | 0.00 | 0.00 | 88 | 1019.7 | |
| 20260504190723 | 81 | 0.0 | 0.0 | 0.00 | 0.00 | 0.00 | 88 | 1019.7 | |
| 20260504190223 | 81 | 0.0 | 0.0 | 0.00 | 0.00 | 0.00 | 87 | 1019.8 | |
| 20260504185723 | 81 | 0.0 | 0.0 | 0.00 | 0.00 | 0.00 | 87 | 1019.8 | |
| 20260504185222 | 81 | 0.0 | 0.0 | 0.00 | 0.00 | 0.00 | 87 | 1019.9 | |
| 20260504184723 | 81 | 0.0 | 0.0 | 0.00 | 0.00 | 0.00 | 87 | 1020.0 | |
| 20260504184223 | 82 | 0.0 | 0.0 | 0.00 | 0.00 | 0.00 | 87 | 1020.0 | |
| 20260504183722 | 82 | 0.0 | 0.0 | 0.00 | 0.00 | 0.00 | 87 | 1020.1 | |
| 20260504183223 | 82 | 0.0 | 0.0 | 0.00 | 0.00 | 0.00 | 86 | 1020.1 | |
| 20260504182723 | 82 | 0.0 | 0.0 | 0.00 | 0.00 | 0.00 | 86 | 1020.2 | |
| 20260504182223 | 82 | 0.0 | 0.0 | 0.00 | 0.00 | 0.00 | 87 | 1020.3 | |
| 20260504181722 | 81 | 0.0 | 0.0 | 0.00 | 0.00 | 0.00 | 89 | 1020.4 | |
| 20260504181223 | 80 | 0.0 | 0.0 | 0.00 | 0.00 | 0.00 | 90 | 1020.5 | |
| 20260504180723 | 80 | 0.0 | 0.0 | 0.00 | 0.00 | 0.00 | 89 | 1020.6 | |
| 20260504180222 | 80 | 0.0 | 0.0 | 0.00 | 0.00 | 0.00 | 89 | 1020.7 | |
| 20260504175723 | 81 | 0.0 | 0.0 | 0.00 | 0.00 | 0.00 | 87 | 1020.7 | |
| 20260504175223 | 81 | 0.0 | 0.0 | 0.00 | 0.00 | 0.00 | 89 | 1020.7 | |
| 20260504174723 | 82 | 0.0 | 0.0 | 0.00 | 0.00 | 0.00 | 87 | 1020.8 | |
| 20260504174223 | 81 | 0.0 | 0.0 | 0.00 | 0.00 | 0.00 | 88 | 1020.9 | |
| 20260504173723 | 82 | 0.0 | 0.0 | 0.00 | 0.00 | 0.00 | 86 | 1020.9 | |
| 20260504173223 | 82 | 0.0 | 0.0 | 0.00 | 0.00 | 0.00 | 87 | 1021.0 | |
| 20260504172722 | 82 | 0.0 | 0.0 | 0.00 | 0.00 | 0.00 | 87 | 1021.2 | |
| 20260504172223 | 82 | 0.0 | 0.0 | 0.00 | 0.00 | 0.00 | 87 | 1021.2 | |
| 20260504171723 | 81 | 0.0 | 0.0 | 0.00 | 0.00 | 0.00 | 88 | 1021.2 | |
| 20260504171223 | 82 | 0.0 | 0.0 | 0.00 | 0.00 | 0.00 | 87 | 1021.2 | |
| 20260504170722 | 82 | 0.0 | 0.0 | 0.00 | 0.00 | 0.00 | 87 | 1021.2 | |
| 20260504170223 | 82 | 0.0 | 0.0 | 0.00 | 0.00 | 0.00 | 87 | 1021.1 | |
| 20260504160223 | 83 | 0.0 | 0.0 | 0.00 | 0.00 | 0.00 | 85 | 1020.9 | |
| 20260504150723 | 82 | 0.0 | 0.0 | 0.00 | 0.00 | 0.00 | 85 | 1021.1 | |
| 20260504150222 | 82 | 0.0 | 0.0 | 0.00 | 0.00 | 0.00 | 85 | 1021.1 | |
| 20260504141223 | 82 | 0.0 | 0.0 | 0.00 | 0.00 | 0.00 | 84 | 1021.2 | |
| 20260504140722 | 83 | 0.0 | 0.0 | 0.00 | 0.00 | 0.00 | 83 | 1021.1 | |
| 20260504140223 | 83 | 0.0 | 0.0 | 0.00 | 0.00 | 0.00 | 83 | 1021.0 | |
| 20260504130724 | 83 | 0.0 | 0.0 | 0.00 | 0.00 | 0.00 | 82 | 1020.0 | |
| 20260504130223 | 83 | 0.0 | 0.0 | 0.00 | 0.00 | 0.00 | 82 | 1019.8 | |
| 20260504120222 | 84 | 0.0 | 0.0 | 0.00 | 0.00 | 0.00 | 81 | 1019.0 | |
| 20260504110222 | 85 | 0.0 | 0.0 | 0.00 | 0.00 | 0.00 | 80 | 1017.8 | |
| 20260504100222 | 85 | 0.0 | 0.0 | 0.00 | 0.00 | 0.00 | 78 | 1018.1 |